Find Starlink 5680

NORAD ID: 55455 Int'l Des: 2023-015 Owner: SPXS Country: US Constellation: starlink operational
LEOCIRCULAR

当前视图

正在加载3D地球...

About Starlink 5680

Starlink 5680 (NORAD 55455) is a starlink constellation satellite (v1.5) launched Feb 2, 2023 by SPXS of US. It operates in LEO, CIRCULAR orbit with a mass of 305.00 kg.

关于 Starlink 5680

正在加载描述...

即将过境

Passes for default location (London). Set your location on the main map for personalized predictions.

高度历史

Loading altitude history...

两行轨道根数

1 55455U 23015G 26166.22264737 -.00000461 00000-0 -72525-5 0 9998
2 55455 43.0026 138.3197 0000544 258.2937 101.7853 15.27573641185631
Epoch: Jun 15, 2026 • Age: 15 hours

当前状态

高度 495.5 km
速度 7.62 km/s
星下点 -41.89°S, 152.91°W
发射日期 Feb 2, 2023
运行时间 3.3 years
类型 internet

技术详情

分类 Payload
质量 305.00 kg
干质量 290.00 kg
总质量 305.00 kg
长度 0.20 m
直径 2.80 m
跨度 9.00 m
形状 Box + pan
制造商 SPXS
平台类型 Starlink
阶段状态 In Orbit
所有者/国家 SPXS/US

Most Searched